{"data":{"norad_id":59035,"epoch":"2026-09-20T18:30:23.487552Z","epoch_age_seconds":132972,"freshness":"FRESH","line1":"1 59035U 24038N   26263.77110518  .00000859  00000+0  40706-4 0  9990","line2":"2 59035  43.0023   1.8282 0000555 313.1447  46.9358 15.27583327144697","mean_motion":15.27583327,"eccentricity":5.55e-5,"inclination_deg":43.0023,"raan_deg":1.8282,"arg_perigee_deg":313.1447,"mean_anomaly_deg":46.9358,"bstar":4.0706e-5,"rev_number":14469,"period_min":94.266543405393,"perigee_km":482.65833854743,"apogee_km":483.41992909828,"semimajor_km":6861.1761338229,"source":"CELESTRAK","updated_at":"2026-09-21T09:00:34.030383Z"}}